Location: Ahstedt
(52.2048°N, 10.1060°E)
Time: 23:47:43
(UTC+00:00)

FengYun 1-2 T - Pass Details

Date: 18 January 2026
Orbit: 844 x 880 km, 98.8° (Epoch: 18 February)

Event Time Altitude Azimuth Distance (km) Brightness Sun altitude
Rises 04:54:56 0° 12° (NNE) 3,463 7.5 -21.4°
Reaches altitude 10° 04:57:23 10° 8° (N) 2,516 6.7 -21.0°
Maximum altitude 05:02:46 51° 294° (WNW) 1,076 4.3 -20.2°
Enters shadow 05:06:44 18° 225° (SW) 1,995 5.8 -19.6°
